Location: Stoke Bliss
(52.2667°N, 2.5167°W)
Time: 02:12:00
(UTC+00:00)

Meteor 1-19 Rocket - Pass Details

Date: 22 June 2021
Orbit: 808 x 927 km, 81.2° (Epoch: 02 August)

Event Time Altitude Azimuth Distance (km) Brightness Sun altitude
Rises 02:19:47 0° 352° (N) 3,582 8.4 -9.3°
Reaches altitude 10° 02:23:16 10° 12° (NNE) 2,642 8.2 -9.1°
Maximum altitude 02:27:07 17° 52° (NE) 2,172 7.5 -8.8°
Drops below altitude 10° 02:30:55 10° 92° (E) 2,630 7.2 -8.5°
Sets 02:34:22 0° 112° (ESE) 3,559 7.6 -8.2°
